Regional Weather Roundup
Issued by NWS

Home | Current Version | Previous Version | Text Only | Print | Product List | Glossary Off
Versions: 1 2 3 4 5 6 7 8 9 10 11 12 13 14 15 16 17 18 19 20 21 22 23 24 25 26 27 28 29 30 31 32 33 34 35 36 37 38 39 40 41 42 43 44 45 46 47 48 49 50

000
ASUS43 KMPX 290601
RWRMN
WEATHER ROUNDUP FOR MINNESOTA
NATIONAL WEATHER SERVICE TWIN CITIES/CHANHASSEN MN
100 AM CDT FRI AUG 29 2014


NOTE: "FAIR" INDICATES FEW OR NO CLOUDS BELOW 12,000 FEET WITH NO
SIGNIFICANT WEATHER AND/OR OBSTRUCTIONS TO VISIBILITY. N/A MEANS
CURRENT SKY AND/OR WEATHER CONDITIONS ARE NOT AVAILABLE.

MNZ060>063-068>070-290700-
   Twin Cities Metro

CITY           SKY/WX    TMP DP  RH WIND       PRES   REMARKS
TWIN CITIES    CLOUDY    67  65  93 SE13      29.88F
6HR MIN TEMP:  67; 6HR MAX TEMP:  68; 6HR PCP: TRACE;

ST PAUL        CLOUDY    67  65  93 SE9       29.89F
CRYSTAL        LGT RAIN  68  64  87 SE10      29.86F
BLAINE         CLOUDY    68  66  94 SE10      29.88F
LAKEVILLE      RAIN      64  64 100 E6        29.88F
EDEN PRAIRIE   LGT RAIN  67  65  93 SE14      29.86F
6HR MIN TEMP:  67; 6HR MAX TEMP:  69; 6HR PCP:  0.01;

SOUTH ST PAUL  CLOUDY    67  65  91 SE7       29.89F
LAKE ELMO      CLOUDY    64  64 100 SE10      29.91F
$$
MNZ001>005-007-008-013>017-022>024-027-028-290700-
   Northwest Minnesota

CITY           SKY/WX    TMP DP  RH WIND       PRES   REMARKS
BEMIDJI        CLOUDY    63  61  92 SE8       29.88F
HALLOCK        CLOUDY    68  64  88 S14G21    29.80S
ROSEAU         MOCLDY    68  63  83 S9        29.83F
WARROAD        CLOUDY    66  63  88 S7        29.84F
THIEF RVR FALL CLOUDY    64  61  88 S7        29.85F
CROOKSTON      MOCLDY    64  63  94 S6        29.84F
FOSSTON        FAIR      63  59  88 SE7       29.86F
DETROIT LAKES  RAIN      64  63  94 SE10      29.88F
MOORHEAD       DRIZZLE   66  66 100 SE6       29.84F
PARK RAPIDS    LGT RAIN  64  63  96 SE10      29.88F
MAHNOMEN       MOCLDY    64  62  93 CALM      29.86S
$$
MNZ006-009>011-018-025>026-290700-
   North Central Minnesota

CITY           SKY/WX    TMP DP  RH WIND       PRES   REMARKS
BAUDETTE       CLOUDY    65  61  87 VRB3      29.85F
FLAG ISLAND    CLOUDY    68  63  83 S8        29.81F
INTL FALLS     CLOUDY    62  60  93 CALM      29.89F
6HR MIN TEMP:  62; 6HR MAX TEMP:  68; 6HR PCP:  0.03;

WASKISH        FAIR      64  61  88 CALM      29.87F
BIG FORK       FAIR      63  61  94 S7        29.92F
LONGVILLE      CLOUDY    63  63 100 SE3       29.90F
GRAND RAPIDS   CLOUDY    61  55  82 SE6       29.92F
CRANE LAKE     CLOUDY    61  55  82 SE3       29.93F
ORR            CLOUDY    61  54  77 S7        29.90F
COOK           CLOUDY    61  55  82 CALM      29.93F
WALKER         LGT RAIN  63  62  96 SE3       29.89F
$$
MNZ012-019>021-037-290700-
   Northeast Minnesota

CITY           SKY/WX    TMP DP  RH WIND       PRES   REMARKS
DULUTH         CLOUDY    60  55  83 E6        29.95F
6HR MIN TEMP:  60; 6HR MAX TEMP:  64; 6HR PCP: TRACE;

ELY            CLOUDY    59  52  77 S5        29.95S
HIBBING        LGT RAIN  59  55  87 CALM      29.94F
EVELETH        FAIR      57  54  88 CALM      29.95F
DULUTH HARBOR  MOCLDY    63  59  88 NE10      29.94F
TWO HARBORS    FAIR      57  52  82 CALM      29.94F
SILVER BAY     FAIR      55  55 100 CALM      29.94F
GRAND MARAIS     N/A     60  53  77 NE3       29.95F
G MARAIS ARPRT FAIR      54  48  82 CALM      29.99S
$$
MNZ029>031-032-039>041-046>048-054>057-064-290700-
   West Central Minnesota

CITY           SKY/WX    TMP DP  RH WIND       PRES   REMARKS
FERGUS FALLS   CLOUDY    64  64 100 SE6       29.84F FOG
WHEATON        CLOUDY    63  63 100 SE5       29.85S FOG
MORRIS         CLOUDY    66  66 100 SE9       29.83F FOG
ALEXANDRIA     CLOUDY    65  64  97 SE12      29.87F
ELBOW LAKE     CLOUDY    65  64  99 SE8       29.84F
WADENA         LGT RAIN  63  63 100 SE7       29.87F
GLENWOOD       CLOUDY    64  63  94 SE7       29.87F
APPLETON       CLOUDY    66  64  94 E6        29.82F
BENSON         CLOUDY    66  64  94 SE6       29.84F
ORTONVILLE     CLOUDY    66  64  94 SE9       29.83F FOG
MADISON        FAIR      70  66  88 SE6       29.83S
WILLMAR        CLOUDY    66  63  88 E8        29.86F
$$
MNZ033>034-036-042>043-049>051-058-059-290700-
   Central Minnesota

CITY           SKY/WX    TMP DP  RH WIND       PRES   REMARKS
ST CLOUD       CLOUDY    68  64  87 E6        29.87F
6HR MIN TEMP:  67; 6HR MAX TEMP:  68; 6HR PCP: TRACE;

SAUK CENTRE    CLOUDY    64  63  96 SE8       29.87F
PAYNESVILLE    HVY RAIN  63  62  97 E7        29.87F
AITKIN         CLOUDY    66  61  82 SE5       29.90F
PINE RIVER     LGT RAIN  64  64 100 SE8       29.93F
BRAINERD       CLOUDY    63  62  97 VRB5      29.90F
STAPLES        RAIN      63  63 100 SE5       29.88F
LONG PRAIRIE   CLOUDY    63  63 100 SE8       29.88F
LITTLE FALLS   CLOUDY    63  61  94 SE7       29.88F FOG
LITCHFIELD     CLOUDY    66  66 100 SE9       29.87F
BUFFALO        CLOUDY    66  63  88 E8        29.88F
MAPLE LAKE     CLOUDY    68  65  91 E7        29.88F
$$
MNZ037-044-045-052-053-290700-
   East Central Minnesota

CITY           SKY/WX    TMP DP  RH WIND       PRES   REMARKS
PRINCETON      CLOUDY    66  64  94 E5        29.89F
MORA           CLOUDY    63  61  94 E5        29.92F
CAMBRIDGE      CLOUDY    68  59  73 E5        29.88F
RUSH CITY      CLOUDY    65  62  90 SE5       29.91F
MOOSE LAKE     CLOUDY    63  61  94 CALM      29.90F
HINCKLEY       CLOUDY    64  63  94 SE3       29.92S
CLOQUET        CLOUDY    61  57  88 CALM      29.94F
MCGREGOR       CLOUDY    63  61  94 SE6       29.92F
$$
MNZ071>073-080-081-089-090-097-098-290700-
   Southwest Minnesota

CITY           SKY/WX    TMP DP  RH WIND       PRES   REMARKS
MONTEVIDEO     CLOUDY    66  66 100 S7        29.84F FOG
GRANITE FALLS  CLOUDY    66  65  97 E5        29.85F
CANBY          FOG       67  66  97 E6        29.83F VSB 3/4
MARSHALL       CLOUDY    66  64  94 SE7       29.81F
REDWOOD FALLS  CLOUDY    66  65  96 SE8       29.83F
OLIVIA         CLOUDY    64  63  94 SE6       29.84F
PIPESTONE      FOG       70  68  94 SE6       29.82F VSB 1/2
WINDOM         FOG       66  66 100 E3        29.84F VSB 1/4
WORTHINGTON    CLOUDY    72  72 100 S7        29.85F
JACKSON        CLOUDY    72  68  88 SE8       29.85F FOG
TRACY          FOG       67  66  97 CALM      29.83F VSB 3/4
SLAYTON        DRZL/FOG  67  67 100 CALM      29.84F VSB 1/4
$$
MNZ065>067-074>077-082>085-091>093-290700-
   South Central Minnesota

CITY           SKY/WX    TMP DP  RH WIND       PRES   REMARKS
MANKATO        CLOUDY    73  63  68 SE13      29.86F
NEW ULM        CLOUDY    66  66 100 E6        29.84F FOG
ST JAMES       CLOUDY    68  66  94 E5        29.85F FOG
FAIRMONT       CLOUDY    68  66  94 S12       29.85F
GLENCOE        CLOUDY    67  63  89 E8        29.86F
FARIBAULT      CLOUDY    70  64  83 SE6       29.89F HAZE
OWATONNA       DRIZZLE   68  66  94 SE7       29.89F
WASECA         CLOUDY    66  63  88 SE7       29.90F FOG
ALBERT LEA     RAIN      70  68  94 S9        29.89F
$$
MNZ078>079-086>088-094>096-290700-
   Southeast Minnesota

CITY           SKY/WX    TMP DP  RH WIND       PRES   REMARKS
ROCHESTER      LGT RAIN  67  65  93 SE9       29.92F VSB 1
6HR MIN TEMP:  65; 6HR MAX TEMP:  67; 6HR PCP:  0.16;

RED WING       CLOUDY    66  64  94 SE9       29.90S
STANTON        CLOUDY    67  64  90 SE8       29.88F
DODGE CENTER   FOG       66  66 100 SE9       29.91F VSB 1
WINONA         CLOUDY    66  64  94 SE9       29.94F
AUSTIN         CLOUDY    68  66  94 S8        29.90F VSB 1
PRESTON        CLOUDY    65  66 100 CALM      29.94F FOG
$$
ABBREVIATIONS USED IN REMARKS
   TC - TEMPERATURES IN CELSIUS
  WCI - WIND CHILL INDEX
   HX - HEAT INDEX
  VSB - VISIBILITY
$$


USA.gov is the U.S. government's official web portal to all federal, state and local government web resources and services.